Location: Pradons
(44.4746°N, 4.3578°E)
Time: 20:00:35
(UTC+00:00)

Cosmos 1703 - Pass Details

Date: 13 August 2020
Orbit: 523 x 541 km, 82.5° (Epoch: 01 October)

Event Time Altitude Azimuth Distance (km) Brightness Sun altitude
Rises 03:06:16 0° 346° (NNW) 2,709 7.2 -15.7°
Reaches altitude 10° 03:08:28 10° 341° (NNW) 1,810 6.2 -15.4°
Maximum altitude 03:12:19 50° 266° (W) 693 3.5 -14.9°
Enters shadow 03:14:43 21° 198° (SSW) 1,249 4.6 -14.5°
